Regional Weather Roundup
Issued by NWS Sioux Falls, SD

Home | Current Version | Previous Version | Text Only | Print | Product List | Glossary On
Versions: 1 2 3 4 5 6 7 8 9 10 11 12 13 14 15 16 17 18 19 20 21 22 23 24 25 26 27 28 29 30 31 32 33 34 35 36 37 38 39 40 41 42 43 44 45 46 47 48 49 50
000
ASUS43 KFSD 170710
RWRFSD

WEATHER ROUNDUP FOR SE SOUTH DAKOTA/SW MINNESOTA/NW IOWA
NATIONAL WEATHER SERVICE SIOUX FALLS SD
200 AM CDT TUE OCT 17 2017

NOTE: "FAIR" INDICATES FEW OR NO CLOUDS BELOW 12,000 FEET WITH NO
SIGNIFICANT WEATHER AND OR OBSTRUCTIONS TO VISIBILITY.


SDZ038>040-050-052>070-170800-
SOUTHEAST SOUTH DAKOTA

CITY           SKY/WX    TMP DP  RH WIND       PRES   REMARKS
BROOKINGS      CLEAR     47  39  74 CALM      30.02R
CHAMBERLAIN    CLEAR     48  41  75 CALM      30.04R
HURON          CLEAR     42  39  89 CALM      30.01R
MADISON        FAIR      50  37  62 W7        30.02S
MITCHELL       CLEAR     49  40  71 SW6       30.02S
SIOUX FALLS    CLEAR     42  39  89 CALM      30.02S
WINNER         FAIR      47  37  68 SW6       30.06R
YANKTON        CLEAR     50  40  68 CALM      30.02S
$$

MNZ071-072-080-081-089-090-097-098-170800-
SOUTHWEST MINNESOTA

CITY           SKY/WX    TMP DP  RH WIND       PRES   REMARKS
FAIRMONT       CLEAR     53  40  61 SW13      30.02S
JACKSON        CLEAR     54  39  58 SW9       30.03R
LUVERNE        CLEAR     37  34  87 CALM      30.03R
MARSHALL       CLEAR     55  40  56 W10       29.98S
MONTEVIDEO     CLEAR     48  39  71 W3        29.97S
PIPESTONE      CLEAR     46  37  71 CALM      30.02R
REDWOOD FALLS  CLEAR     46  38  73 SW6       29.98R
TRACY          CLEAR     52  41  65 SW10      29.99S
WORTHINGTON    CLEAR     51  39  63 SW7       30.03R
$$

IAZ001>003-012>014-020>022-031-032-NEZ013-014-SDZ071-170800-
NORTHWEST IOWA

CITY           SKY/WX    TMP DP  RH WIND       PRES   REMARKS
CHEROKEE       CLEAR     48  41  75 NE5       30.07R
DENISON        CLEAR     54  41  62 S13G18    30.09S
ESTHERVILLE    CLEAR     52  40  63 SW12      30.03R
LE MARS        CLEAR     43  39  87 S5        30.05S
ORANGE CITY    CLEAR     48  43  81 S7        30.04S
SHELDON        CLEAR     52  39  62 SW7       30.02R
SIOUX CITY     CLEAR     56  40  55 CALM      30.06R
SPENCER        CLEAR     52  40  63 SW8       30.04S
STORM LAKE     CLEAR     55  39  54 SW9       30.06S
$$

ABBREVIATIONS USED IN REMARKS
   TC - TEMPERATURE IN CELSIUS
  WCI - WIND CHILL INDEX
   HX - HEAT INDEX
  VSB - VISIBILITY




USA.gov is the U.S. government's official web portal to all federal, state and local government web resources and services.